Regional Weather Roundup
Issued by NWS

Home | Current Version | Previous Version | Text Only | Print | Product List | Glossary On
Versions: 1 2 3 4 5 6 7 8 9 10 11 12 13 14 15 16 17 18 19 20 21 22 23 24 25 26 27 28 29 30 31 32 33 34 35 36 37 38 39 40 41 42 43 44 45 46 47 48 49 50
000
ASUS45 KSLC 200510
RWRUT

UTAH REGIONAL WEATHER ROUNDUP
NATIONAL WEATHER SERVICE SALT LAKE CITY UT
1000 PM MST SUN NOV 19 2017

UTZ001>011-023>025-200600-

NORTHERN UTAH

CITY           SKY/WX    TMP DP  RH WIND       PRES   REMARKS
BRIGHAM CITY   MOCLDY    31  27  84 CALM      30.12R
HILL AFB       MOCLDY    33  23  65 E15       30.08F WCI  23
LOGAN          MOCLDY    31  26  82 CALM      30.09S
OGDEN          MOCLDY    32  25  75 S5        30.09S WCI  27
SALT LAKE CITY CLOUDY    34  31  88 SW3       30.10S
TOOELE VALLEY  CLOUDY    30  27  86 S6        30.10F WCI  24
WENDOVER       CLOUDY    32  26  78 CALM      30.12S
HEBER CITY       N/A     27  21  80 E3        30.10S
WEST JORDAN    CLOUDY    32  31  93 CALM      30.10S

$$

UTZ011>015-024>027-200600-

CENTRAL/NORTHEAST UTAH

CITY           SKY/WX    TMP DP  RH WIND       PRES   REMARKS
PROVO AIRPORT  MOCLDY    30  27  88 CALM      30.12R
MOAB/CANYONLAN CLOUDY    27   4  37 CALM      30.19R
DELTA          CLOUDY    30  18  59 CALM      30.13R
PRICE          MOCLDY    26   7  44 NE6       30.19R WCI  19
RICHFIELD      CLEAR     28  25  86 CALM      30.16R
ROOSEVELT      CLOUDY    21  14  73 W3        30.18S
VERNAL         CLOUDY    25  13  60 NW6       30.16R WCI  18

$$

UTZ013>016-019>022-027-200600-

SOUTHERN UTAH

CITY           SKY/WX    TMP DP  RH WIND       PRES   REMARKS
BRYCE CANYON   PTCLDY    15   7  70 W6        30.23R WCI   6
CEDAR CITY     MOCLDY    36   8  31 S6        30.14R WCI  31
MILFORD        CLOUDY    30  17  58 S5        30.12R WCI  25
ST GEORGE      MOCLDY    44  11  26 CALM      30.14R
HANKSVILLE     MOCLDY    30   5  34 CALM      30.23S
KANAB          CLEAR     36   7  30 N13       30.23R WCI  27
BLANDING         N/A     29   3  32 NE7       30.28R WCI  22

$$

REGIONAL REPORTS     COLORADO/ARIZONA

CITY           SKY/WX    TMP DP  RH WIND       PRES   REMARKS
CRAIG, CO      CLOUDY    15  11  83 CALM      30.14F
GRAND JUNCTION CLOUDY    31  16  54 E5        30.22S WCI  26
RIFLE, CO      CLOUDY    25  19  78 CALM      30.23F
MONTROSE, CO   CLOUDY    25  19  78 SE9       30.26S WCI  15
CORTEZ, CO     CLOUDY    19  11  70 N7        30.22F WCI  10
COLORADO CITY    N/A     30   7  37 SE6       30.20R WCI  24
PAGE, AZ       PTCLDY    39  13  34 W3        30.19S
GRAND CANYON   MOCLDY    21  -1  38 CALM      30.22S
KINGMAN, AZ    PTCLDY    40   6  24 E8        30.12S WCI  34
FLAGSTAFF, AZ  PTCLDY    23   2  40 CALM      30.23R

$$

REGIONAL REPORTS    NEVADA/IDAHO/WYOMING

CITY           SKY/WX    TMP DP  RH WIND       PRES   REMARKS
LAS VEGAS, NV  CLOUDY    50  10  20 S3        30.09R
ELY, NY        MOCLDY    32   1  26 SE6       30.14S WCI  26
ELKO, NV       CLOUDY    34  27  75 NE3       30.07F
POCATELLO, ID  CLOUDY    31  22  69 N6        30.04S WCI  25
BURLEY, ID     PTCLDY    31  27  85 CALM      29.98F
FORT BRIDGER,    N/A     28  12  52 W6        30.10S WCI  21
EVANSTON, WY   CLOUDY    24  17  74 SW12      30.08F WCI  13
ROCK SPRINGS,  CLOUDY    23  16  74 CALM      30.08S

$$



USA.gov is the U.S. government's official web portal to all federal, state and local government web resources and services.